�N����,����,�~����,�C��,���x,�C��,����,���ϕ���,�ő�u�ԕ���,�ő厞����,���˗�,�I�_���x,�n�����x,�ő啗���N��,DTYPE
"16/05/20","00:10",0.0,16.7,78.8,1013.8,310.6,1.0,1.4,321.7,0.00,13.0,19.3,"00:00:48",1
"16/05/20","00:20",0.0,16.7,80.0,1013.8,320.1,1.2,1.6,330.2,0.00,13.3,19.2,"00:10:40",1
"16/05/20","00:30",0.0,16.6,81.0,1013.3,294.8,1.0,1.2,326.3,0.00,13.4,19.3,"00:20:08",1
"16/05/20","00:40",0.0,16.4,80.8,1013.5,292.9,0.8,1.0,289.0,0.00,13.1,19.2,"00:31:04",1
"16/05/20","00:50",0.0,16.4,80.9,1013.5,300.8,0.8,1.3,320.4,0.00,13.2,19.0,"00:41:04",1
"16/05/20","01:00",0.0,16.3,82.6,1013.3,303.8,1.1,1.4,320.9,0.00,13.4,18.9,"00:50:48",1
"16/05/20","01:10",0.0,16.0,83.4,1013.5,308.0,1.1,1.4,320.2,0.00,13.2,18.9,"01:08:00",1
"16/05/20","01:20",0.0,15.8,84.7,1013.3,316.6,1.1,1.3,313.2,0.00,13.3,19.1,"01:10:16",1
"16/05/20","01:30",0.0,15.7,85.1,1013.0,294.9,0.8,1.2,319.0,0.00,13.2,18.9,"01:29:36",1
"16/05/20","01:40",0.0,15.7,85.0,1013.5,315.1,1.2,1.6,321.5,0.00,13.2,18.9,"01:33:28",1
"16/05/20","01:50",0.0,15.8,85.3,1013.3,319.3,1.2,1.6,326.3,0.00,13.4,19.0,"01:45:36",1
"16/05/20","02:00",0.0,15.8,85.1,1013.3,314.2,1.2,1.6,320.0,0.00,13.3,18.9,"01:50:08",1
"16/05/20","02:10",0.0,15.8,84.3,1013.5,294.3,0.8,1.3,304.7,0.00,13.2,18.9,"02:05:12",1
"16/05/20","02:20",0.0,15.8,83.8,1013.3,293.0,1.0,1.3,308.9,0.00,13.1,18.8,"02:15:28",1
"16/05/20","02:30",0.0,15.9,83.8,1013.8,301.0,0.8,1.2,318.3,0.00,13.2,18.6,"02:23:52",1
"16/05/20","02:40",0.0,15.9,83.8,1013.8,317.7,1.0,1.6,323.3,0.00,13.2,18.5,"02:31:44",1
"16/05/20","02:50",0.0,15.9,84.1,1013.5,302.4,1.0,1.3,325.2,0.00,13.3,18.8,"02:42:00",1
"16/05/20","03:00",0.0,15.8,84.9,1013.5,312.8,1.0,1.2,326.0,0.00,13.3,18.5,"02:51:44",1
"16/05/20","03:10",0.0,15.7,84.6,1013.5,284.3,0.8,1.1,281.6,0.00,13.2,18.8,"03:04:40",1
"16/05/20","03:20",0.0,15.8,83.7,1013.8,292.4,0.8,1.3,323.0,0.00,13.1,18.4,"03:13:04",1
"16/05/20","03:30",0.0,15.7,84.3,1013.5,317.6,1.2,2.0,338.0,0.00,13.1,18.6,"03:23:52",1
"16/05/20","03:40",0.0,15.5,84.8,1013.8,292.6,1.0,1.6,323.3,0.00,13.0,18.6,"03:30:40",1
"16/05/20","03:50",0.0,15.5,84.7,1013.3,301.1,0.8,1.3,325.5,0.00,13.0,18.4,"03:41:36",1
"16/05/20","04:00",0.0,15.3,86.0,1013.5,318.6,1.2,1.7,327.3,0.00,13.0,18.3,"03:55:52",1
"16/05/20","04:10",0.0,15.1,86.7,1013.0,318.4,1.1,1.4,324.2,0.00,12.9,18.5,"04:06:24",1
"16/05/20","04:20",0.0,15.1,87.4,1013.5,304.3,1.1,1.3,321.2,0.00,13.1,18.4,"04:16:40",1
"16/05/20","04:30",0.0,14.8,87.5,1013.0,296.5,0.7,1.3,318.3,0.00,12.8,18.6,"04:20:32",1
"16/05/20","04:40",0.0,14.8,87.3,1013.3,302.6,1.0,1.3,301.1,0.00,12.8,18.4,"04:34:32",1
"16/05/20","04:50",0.0,14.8,86.9,1013.3,292.6,0.8,1.1,294.9,0.00,12.7,18.2,"04:45:04",1
"16/05/20","05:00",0.0,14.8,86.4,1013.3,291.9,0.7,1.2,314.4,0.00,12.6,18.3,"04:53:36",1
"16/05/20","05:10",0.0,14.8,86.3,1013.8,311.4,0.8,1.3,322.2,0.00,12.6,18.2,"05:05:52",1
"16/05/20","05:20",0.0,15.0,86.0,1013.8,320.1,1.2,1.7,339.4,0.00,12.7,18.2,"05:12:08",1
"16/05/20","05:30",0.0,15.0,86.3,1014.0,312.0,1.0,1.4,305.5,0.00,12.8,18.3,"05:27:04",1
"16/05/20","05:40",0.0,15.1,86.4,1014.2,298.4,0.8,1.1,325.4,0.01,12.9,18.2,"05:30:48",1
"16/05/20","05:50",0.0,15.3,87.1,1014.0,301.4,1.0,1.4,316.9,0.02,13.2,18.0,"05:49:20",1
"16/05/20","06:00",0.0,15.5,86.8,1014.0,316.7,1.1,1.6,323.5,0.03,13.4,18.2,"05:56:08",1
"16/05/20","06:10",0.0,15.9,84.1,1013.8,298.3,1.0,1.3,317.7,0.03,13.3,18.2,"06:05:04",1
"16/05/20","06:20",0.0,16.4,82.4,1013.8,291.5,0.8,1.6,323.9,0.04,13.4,18.2,"06:19:44",1
"16/05/20","06:30",0.0,16.8,82.4,1014.2,319.9,1.1,1.6,321.7,0.05,13.8,18.2,"06:22:08",1
"16/05/20","06:40",0.0,17.3,81.1,1013.8,326.9,0.6,1.4,329.3,0.08,14.1,18.2,"06:31:20",1
"16/05/20","06:50",0.0,17.8,78.8,1014.0,347.3,0.6,1.3,332.8,0.08,14.1,18.3,"06:49:12",1
"16/05/20","07:00",0.0,18.0,77.4,1014.2,335.8,1.2,1.9,342.0,0.10,14.0,18.2,"06:59:36",1
"16/05/20","07:10",0.0,18.3,78.1,1014.0,322.8,1.1,1.7,335.1,0.11,14.5,18.2,"07:00:56",1
"16/05/20","07:20",0.0,19.0,73.5,1014.0,276.0,0.3,1.9,326.1,0.14,14.2,18.2,"07:19:52",1
"16/05/20","07:30",0.0,19.7,67.7,1014.2,329.1,0.5,1.4,335.5,0.19,13.6,18.5,"07:21:20",1
"16/05/20","07:40",0.0,20.1,63.5,1014.2,302.3,0.3,0.9,311.1,0.19,13.0,18.6,"07:39:44",1
"16/05/20","07:50",0.0,20.1,67.0,1013.8,278.4,0.5,1.1,242.9,0.17,13.8,18.2,"07:44:32",1
"16/05/20","08:00",0.0,20.4,64.2,1013.8,281.1,0.3,1.2,237.2,0.18,13.5,18.6,"07:59:36",1
"16/05/20","08:10",0.0,20.9,62.3,1013.3,219.4,0.3,1.0,185.4,0.22,13.5,18.7,"08:01:28",1
"16/05/20","08:20",0.0,21.1,62.6,1013.3,110.4,0.6,2.2,355.8,0.21,13.7,18.6,"08:17:36",1
"16/05/20","08:30",0.0,20.9,61.2,1013.0,86.4,0.8,2.7,120.2,0.21,13.2,18.7,"08:25:28",1
"16/05/20","08:40",0.0,20.8,62.2,1013.0,165.1,0.7,1.9,120.4,0.15,13.3,18.8,"08:36:24",1
"16/05/20","08:50",0.0,21.8,59.1,1013.3,161.5,1.2,2.7,162.1,0.30,13.5,18.9,"08:42:32",1
"16/05/20","09:00",0.0,22.6,58.7,1013.3,147.8,1.3,4.0,195.6,0.41,14.2,18.7,"08:52:16",1
"16/05/20","09:10",0.0,22.9,55.6,1012.6,131.1,1.3,3.1,145.5,0.47,13.6,19.1,"09:01:28",1
"16/05/20","09:20",0.0,23.1,55.8,1012.8,129.6,1.2,3.1,124.3,0.48,13.8,19.2,"09:10:02",1
"16/05/20","09:30",0.0,23.6,52.9,1012.6,144.2,1.3,3.6,125.5,0.51,13.5,19.5,"09:20:40",1
"16/05/20","09:40",0.0,23.8,55.6,1012.6,150.4,1.3,3.1,154.5,0.54,14.4,19.4,"09:35:52",1
"16/05/20","09:50",0.0,23.8,57.4,1012.6,127.4,1.2,2.7,45.0,0.48,14.9,19.6,"09:41:52",1
"16/05/20","10:00",0.0,23.9,54.9,1012.1,169.6,1.8,4.4,233.2,0.50,14.3,19.8,"09:55:04",1
"16/05/20","10:10",0.0,24.1,55.0,1011.6,164.6,2.1,4.9,179.3,0.55,14.5,19.9,"10:08:32",1
"16/05/20","10:20",0.0,24.0,52.5,1011.9,163.4,2.1,4.3,138.4,0.56,13.7,20.2,"10:10:32",1
"16/05/20","10:30",0.0,24.0,54.5,1011.6,186.1,2.0,3.6,205.5,0.55,14.3,20.2,"10:24:32",1
"16/05/20","10:40",0.0,24.8,53.3,1011.4,206.6,1.6,4.5,217.7,0.58,14.7,20.4,"10:37:20",1
"16/05/20","10:50",0.0,24.3,52.1,1011.2,221.9,2.2,4.7,227.6,0.62,13.9,20.6,"10:41:04",1
"16/05/20","11:00",0.0,25.0,49.6,1010.9,199.2,2.1,4.8,205.4,0.57,13.8,20.8,"10:59:36",1
"16/05/20","11:10",0.0,24.8,51.8,1010.9,202.3,1.5,2.7,121.8,0.55,14.3,21.0,"11:08:40",1
"16/05/20","11:20",0.0,25.3,49.4,1010.7,178.5,1.7,3.2,220.6,0.61,14.0,21.2,"11:17:44",1
"16/05/20","11:30",0.0,25.3,47.1,1010.9,211.5,2.1,5.6,229.3,0.64,13.3,21.3,"11:22:08",1
"16/05/20","11:40",0.0,26.0,46.5,1010.9,186.5,2.0,4.3,213.1,0.62,13.7,21.4,"11:37:36",1
"16/05/20","11:50",0.0,26.4,47.9,1010.7,199.3,1.7,4.1,91.0,0.63,14.5,21.6,"11:49:20",1
"16/05/20","12:00",0.0,26.5,45.8,1010.7,146.1,2.0,4.7,140.4,0.62,13.9,21.9,"11:58:40",1
"16/05/20","12:10",0.0,26.9,45.5,1010.9,126.7,1.5,3.5,119.9,0.62,14.2,22.0,"12:00:08",1
"16/05/20","12:20",0.0,27.0,45.8,1010.7,16.4,1.3,2.9,347.4,0.62,14.4,22.1,"12:13:04",1
"16/05/20","12:30",0.0,26.9,46.8,1010.7,91.1,1.0,2.4,116.9,0.61,14.6,22.5,"12:21:52",1
"16/05/20","12:40",0.0,27.2,44.8,1010.9,94.6,1.0,3.4,111.5,0.61,14.2,22.4,"12:36:16",1
"16/05/20","12:50",0.0,27.2,45.2,1010.0,94.7,0.8,2.5,9.6,0.61,14.4,22.6,"12:43:52",1
"16/05/20","13:00",0.0,27.9,43.7,1010.4,9.1,0.8,2.4,113.9,0.60,14.5,22.6,"12:59:04",1
"16/05/20","13:10",0.0,27.8,46.9,1010.4,134.7,1.2,2.7,161.3,0.59,15.5,22.7,"13:02:00",1
"16/05/20","13:20",0.0,27.6,41.7,1010.2,136.0,1.6,3.5,49.2,0.59,13.5,22.7,"13:18:48",1
"16/05/20","13:30",0.0,28.0,41.6,1010.4,159.5,1.0,2.6,143.6,0.58,13.8,22.6,"13:22:08",1
"16/05/20","13:40",0.0,28.8,40.6,1010.2,46.1,0.8,2.4,353.0,0.57,14.1,22.8,"13:35:28",1
"16/05/20","13:50",0.0,28.5,40.2,1010.7,71.0,1.3,3.2,54.8,0.55,13.7,22.6,"13:47:12",1
"16/05/20","14:00",0.0,28.7,43.3,1010.2,96.7,1.1,2.2,116.3,0.54,15.0,22.9,"13:54:00",1
"16/05/20","14:10",0.0,29.0,40.1,1010.0,106.0,1.0,2.5,140.0,0.52,14.1,22.7,"14:05:04",1
"16/05/20","14:20",0.0,28.9,37.8,1009.7,118.5,1.0,2.8,113.8,0.51,13.1,22.8,"14:18:48",1
"16/05/20","14:30",0.0,28.9,39.4,1009.7,87.4,1.5,3.3,124.7,0.49,13.8,23.0,"14:21:28",1
"16/05/20","14:40",0.0,29.2,40.0,1009.0,192.7,1.1,3.6,210.5,0.48,14.3,23.3,"14:35:36",1
"16/05/20","14:50",0.0,29.3,38.5,1009.5,161.7,1.2,3.1,119.9,0.46,13.8,23.4,"14:42:16",1
"16/05/20","15:00",0.0,29.2,38.3,1009.0,103.0,1.2,2.6,129.2,0.44,13.6,23.6,"14:53:52",1
"16/05/20","15:10",0.0,28.9,39.7,1008.8,106.5,1.6,3.3,141.0,0.41,13.9,23.5,"15:08:56",1
"16/05/20","15:20",0.0,29.0,35.0,1008.6,112.8,1.5,2.9,170.7,0.39,12.0,23.8,"15:11:04",1
"16/05/20","15:30",0.0,28.9,32.9,1008.8,113.7,1.5,3.5,112.4,0.36,11.0,23.7,"15:23:52",1
"16/05/20","15:40",0.0,29.3,32.0,1008.6,134.5,1.5,2.8,126.0,0.35,11.0,23.8,"15:37:04",1
"16/05/20","15:50",0.0,29.6,32.5,1008.8,111.1,1.0,2.2,107.2,0.29,11.4,23.5,"15:49:52",1
"16/05/20","16:00",0.0,29.5,31.1,1008.8,123.8,1.3,3.7,135.4,0.32,10.7,23.9,"15:58:48",1
"16/05/20","16:10",0.0,29.2,31.2,1008.6,121.7,1.2,3.4,118.9,0.29,10.5,23.8,"16:05:52",1
"16/05/20","16:20",0.0,28.3,31.0,1008.3,101.9,1.2,2.6,108.1,0.13,9.6,23.8,"16:13:28",1
"16/05/20","16:30",0.0,27.7,30.1,1008.1,94.1,1.2,2.9,68.4,0.07,8.7,23.7,"16:27:44",1
"16/05/20","16:40",0.0,27.4,30.2,1007.8,106.1,1.2,2.4,122.0,0.07,8.4,23.7,"16:38:48",1
"16/05/20","16:50",0.0,27.3,35.5,1007.8,87.2,1.0,2.4,111.6,0.06,10.8,23.7,"16:42:24",1
"16/05/20","17:00",0.0,26.9,38.7,1007.6,42.4,1.0,2.0,45.3,0.06,11.7,23.4,"16:53:28",1
"16/05/20","17:10",0.0,26.7,40.2,1008.1,29.5,1.1,2.1,8.7,0.05,12.1,23.5,"17:03:44",1
"16/05/20","17:20",0.0,26.5,42.7,1008.1,20.1,0.8,1.9,37.7,0.04,12.8,23.3,"17:16:16",1
"16/05/20","17:30",0.0,26.2,44.1,1008.3,354.7,0.8,1.9,339.4,0.03,13.1,23.1,"17:24:08",1
"16/05/20","17:40",0.0,25.9,45.8,1008.8,359.2,1.2,2.1,348.0,0.02,13.4,23.2,"17:32:00",1
"16/05/20","17:50",0.0,25.3,48.5,1008.8,344.6,1.3,2.6,354.7,0.01,13.7,23.1,"17:46:24",1
"16/05/20","18:00",0.0,24.8,46.2,1009.3,341.3,1.2,2.4,338.7,0.01,12.5,22.8,"17:52:24",1
"16/05/20","18:10",0.0,24.4,48.0,1009.5,326.2,1.0,2.2,332.2,0.00,12.7,22.7,"18:07:44",1
"16/05/20","18:20",0.0,24.0,49.1,1009.5,294.5,0.7,1.3,333.6,0.00,12.7,22.5,"18:11:04",1
"16/05/20","18:30",0.0,23.7,54.4,1009.7,313.5,1.0,2.0,329.9,0.00,14.0,22.6,"18:27:28",1
"16/05/20","18:40",0.0,23.3,55.9,1009.7,280.7,1.0,1.7,327.4,0.00,14.1,22.3,"18:39:52",1
"16/05/20","18:50",0.0,22.7,58.4,1009.7,290.2,1.0,1.3,308.1,0.00,14.2,22.2,"18:40:16",1
"16/05/20","19:00",0.0,22.1,60.6,1010.0,305.5,1.0,1.4,319.5,0.00,14.2,22.2,"18:52:40",1
"16/05/20","19:10",0.0,21.6,62.8,1010.0,284.5,0.7,1.4,334.6,0.00,14.3,22.0,"19:00:40",1
"16/05/20","19:20",0.0,21.1,63.9,1010.7,302.5,1.1,1.4,328.6,0.00,14.0,21.9,"19:14:24",1
"16/05/20","19:30",0.0,20.8,62.4,1010.4,303.9,0.7,1.2,314.1,0.00,13.4,21.9,"19:21:52",1
"16/05/20","19:40",0.0,20.6,62.8,1010.4,290.2,1.0,1.7,314.5,0.00,13.3,21.8,"19:39:44",1
"16/05/20","19:50",0.0,20.3,62.5,1010.9,302.7,1.0,1.8,333.5,0.00,13.0,21.7,"19:41:44",1
"16/05/20","20:00",0.0,20.0,63.6,1010.9,315.3,1.2,2.2,334.3,0.00,12.9,21.4,"19:50:56",1
"16/05/20","20:10",0.0,19.6,63.3,1011.2,306.6,1.2,1.4,322.0,0.00,12.5,21.5,"20:05:52",1
"16/05/20","20:20",0.0,19.3,64.4,1011.2,301.8,1.1,1.6,311.1,0.00,12.5,21.2,"20:14:08",1
"16/05/20","20:30",0.0,19.1,63.3,1011.9,288.7,1.0,1.3,322.0,0.00,12.0,21.2,"20:21:28",1
"16/05/20","20:40",0.0,19.0,62.2,1011.6,297.3,1.2,1.8,339.4,0.00,11.7,21.0,"20:39:04",1
"16/05/20","20:50",0.0,18.8,67.3,1011.9,316.8,1.2,2.4,338.5,0.00,12.7,21.0,"20:42:24",1
"16/05/20","21:00",0.0,18.3,67.6,1011.9,294.1,1.0,1.7,332.3,0.00,12.2,20.5,"20:59:12",1
"16/05/20","21:10",0.0,18.0,65.2,1012.3,303.7,1.2,1.7,329.5,0.00,11.4,20.7,"21:02:16",1
"16/05/20","21:20",0.0,18.0,64.8,1012.6,308.0,1.2,1.8,330.5,0.00,11.3,20.7,"21:17:12",1
"16/05/20","21:30",0.0,17.9,66.6,1012.6,301.9,0.8,1.8,321.0,0.00,11.6,20.5,"21:26:32",1
"16/05/20","21:40",0.0,17.7,67.0,1012.3,301.2,1.1,1.7,320.2,0.00,11.5,20.5,"21:33:04",1
"16/05/20","21:50",0.0,17.4,66.9,1012.6,300.5,0.8,1.6,323.8,0.00,11.2,20.2,"21:41:28",1
"16/05/20","22:00",0.0,17.2,68.6,1012.1,311.0,0.8,1.1,322.7,0.00,11.4,20.0,"21:55:52",1
"16/05/20","22:10",0.0,17.0,69.8,1012.6,307.1,1.0,1.4,321.6,0.00,11.5,20.1,"22:01:52",1
"16/05/20","22:20",0.0,16.9,70.5,1012.3,301.1,0.7,1.2,309.1,0.00,11.5,19.9,"22:19:28",1
"16/05/20","22:30",0.0,16.6,71.1,1012.6,304.8,0.8,1.2,312.5,0.00,11.4,20.2,"22:26:00",1
"16/05/20","22:40",0.0,16.5,72.3,1012.8,298.7,0.8,1.1,308.8,0.00,11.5,19.7,"22:33:28",1
"16/05/20","22:50",0.0,16.4,73.0,1013.0,302.6,1.0,1.6,320.2,0.00,11.6,19.7,"22:44:32",1
"16/05/20","23:00",0.0,16.2,73.3,1012.8,289.5,0.7,1.2,325.2,0.00,11.5,19.7,"22:50:32",1
"16/05/20","23:10",0.0,16.2,74.0,1012.8,298.6,0.8,1.2,305.2,0.00,11.6,19.5,"23:02:32",1
"16/05/20","23:20",0.0,16.2,75.0,1012.8,297.6,1.1,1.7,315.8,0.00,11.8,19.6,"23:11:44",1
"16/05/20","23:30",0.0,16.2,75.6,1012.6,290.0,1.0,1.4,292.2,0.00,11.9,19.3,"23:29:04",1
"16/05/20","23:40",0.0,16.2,76.0,1012.6,295.4,1.1,2.0,331.7,0.00,12.0,19.3,"23:37:36",1
"16/05/20","23:50",0.0,16.1,76.9,1012.8,303.1,1.1,1.6,330.1,0.00,12.1,19.5,"23:41:52",1
"16/05/20","24:00",0.0,16.0,78.3,1012.8,291.3,0.8,1.2,300.1,0.00,12.3,19.2,"23:56:24",1
